GFSNGP_850_rhum_276.txt.gz
RH
52 40 33 36 32 34 32 33 45 36 33 26 32 23 25 26 25 25 25 33 37 44 50 56 64 71 79 83 86 82 72 66 61 54 43 42 39 26 17 12 10 9 9 11
94 36 33 43 35 45 31 29 27 26 27 20 20 23 24 25 25 24 24 26 37 42 50 56 63 70 76 80 83 82 76 71 62 50 47 45 39 26 19 14 12 16 20 22
62 38 33 44 35 30 27 25 27 34 28 22 24 21 21 21 21 22 24 28 31 42 46 53 60 67 75 77 79 81 73 67 56 50 51 48 42 32 23 20 21 31 31 40
72 47 78 38 25 24 26 25 23 23 22 23 23 26 25 25 26 27 26 28 33 36 45 52 58 65 73 76 79 77 73 60 54 52 52 51 47 39 31 24 27 29 40 52
82 62 42 30 28 28 30 29 22 25 23 23 25 26 37 40 42 41 40 38 39 39 45 53 57 63 71 74 75 77 67 58 54 53 52 53 49 42 32 30 37 38 38 50
78 71 59 29 22 24 24 38 20 23 29 26 25 65 47 39 44 45 50 50 48 46 51 56 60 65 70 71 74 70 63 60 58 54 53 53 50 45 36 37 32 37 35 35
84 94 60 27 24 25 47 46 27 27 27 28 36 34 31 32 34 40 44 50 51 52 56 61 63 65 67 68 69 64 62 63 61 58 55 54 51 46 41 37 28 23 30 38
73 88 86 31 29 39 38 30 28 26 27 29 32 33 34 32 32 35 42 51 52 56 58 62 64 64 64 63 61 63 62 63 64 62 58 56 54 48 38 27 25 29 33 42
58 58 37 33 32 31 33 34 32 29 29 31 31 32 32 34 34 33 34 41 43 45 51 57 59 49 49 46 59 62 63 62 61 62 60 58 52 49 39 27 30 33 41 44
50 38 35 33 32 32 32 34 33 32 32 31 32 33 35 36 36 36 34 34 36 39 42 48 54 59 57 59 60 60 60 60 60 61 60 60 56 47 33 35 36 39 42 46
50 38 34 36 34 33 33 34 33 32 31 32 33 32 31 33 34 35 36 35 35 35 38 41 45 52 56 57 58 58 58 58 59 59 59 60 58 50 34 37 31 23 27 43
63 41 42 37 36 37 36 34 31 33 34 32 32 32 32 32 34 34 34 35 37 38 38 38 40 43 50 54 55 58 57 55 57 57 59 59 59 53 49 49 42 27 18 25
39 39 37 37 34 34 35 36 37 34 32 32 33 34 37 38 40 41 44 44 44 46 46 44 43 44 46 50 52 60 57 55 55 56 57 56 57 72 55 50 53 34 15 14
33 34 35 36 36 35 38 36 34 33 34 34 34 34 38 42 44 46 48 49 48 55 54 54 54 51 51 55 52 53 56 55 55 54 56 55 58 97 76 58 70 28 19 23
34 36 38 38 36 35 37 35 34 34 33 32 32 43 49 52 53 50 49 49 49 47 46 51 54 56 58 56 57 54 54 56 57 56 56 54 69 97 87 87 69 29 34 39
34 34 36 35 34 34 30 30 32 34 35 36 40 48 51 51 49 48 46 46 46 48 48 52 55 51 49 50 55 58 57 59 59 58 55 56 79 97 90 96 58 31 43 50
33 31 32 34 32 34 36 37 37 38 42 44 44 45 47 49 50 50 51 51 52 53 52 50 51 50 55 60 59 59 60 61 63 62 56 59 97 96 92 96 60 47 49 68
32 32 34 36 37 38 39 41 42 42 41 42 46 44 37 38 39 40 44 46 42 39 40 42 56 56 59 63 66 64 64 65 67 65 72 96 97 86 97 95 53 60 69 74
32 34 37 36 36 39 41 40 41 43 46 48 51 43 40 40 39 39 42 47 47 48 43 48 50 51 54 65 70 70 69 70 73 72 79 98 90 97 97 64 58 64 72 79
33 33 35 39 42 35 42 41 42 40 38 38 39 40 44 48 50 51 49 46 45 48 50 50 54 57 59 70 77 74 70 74 76 86 97 94 93 97 81 58 63 70 80 92
34 36 41 39 45 43 28 28 28 29 32 39 46 49 51 54 55 46 43 44 47 52 60 58 67 67 73 79 83 79 79 78 84 94 69 95 97 88 45 40 57 58 62 67
38 38 39 42 31 25 24 25 26 30 38 40 48 53 57 57 48 48 57 62 66 68 73 76 79 82 83 84 84 82 82 83 78 83 96 97 89 48 42 50 44 60 94 98
38 41 44 44 33 27 25 28 30 34 35 43 53 59 59 50 51 57 64 70 74 74 75 80 82 85 87 84 87 88 86 92 95 97 97 75 39 33 36 43 66 97 95 96
41 40 38 42 37 32 33 35 42 40 42 53 59 59 53 50 54 67 69 72 73 72 75 78 81 84 85 83 81 85 96 97 97 92 57 33 29 29 33 36 56 76 77 88
42 44 45 37 38 39 48 60 62 57 56 60 64 56 54 50 54 64 70 74 71 71 72 71 71 72 67 59 67 94 97 96 65 40 26 24 23 24 28 40 53 64 91 100
54 46 54 59 59 44 37 43 59 61 61 67 70 58 55 52 54 61 70 74 72 79 75 64 58 63 73 84 96 97 84 51 29 22 23 22 22 26 34 41 58 82 97 100
60 60 57 51 46 51 47 37 35 43 56 72 72 62 57 54 57 63 70 74 73 82 72 64 89 98 98 96 95 62 44 26 22 24 23 24 26 30 36 51 80 100 100 100

GFSNGP_850_rhum_279.txt.gz
RH
65 60 64 58 50 46 55 50 63 51 48 44 49 43 36 28 28 29 32 34 35 39 44 48 56 62 65 68 73 80 84 86 84 74 66 58 45 43 42 34 16 8 7 8
82 56 56 52 55 46 48 46 44 41 43 38 34 34 32 26 26 25 24 25 28 40 42 47 53 58 65 70 75 82 87 85 82 72 67 55 44 44 44 36 22 11 10 11
86 64 63 66 52 44 51 49 35 45 38 34 32 31 27 25 25 27 27 26 26 34 44 46 49 53 59 64 70 78 84 83 81 70 64 55 47 47 45 40 28 14 11 16
84 78 100 56 35 31 35 36 28 29 28 31 32 28 28 29 29 32 31 30 32 33 43 48 50 54 58 62 66 73 78 79 77 69 62 54 48 48 47 44 36 20 17 22
86 86 61 45 36 34 33 36 26 29 32 30 26 40 45 40 35 30 32 33 36 37 38 42 49 53 58 63 69 72 74 75 72 65 60 53 49 49 49 47 41 27 21 23
88 82 80 53 35 25 28 50 30 33 36 30 28 75 64 33 32 33 31 33 38 46 44 45 50 53 57 62 67 67 69 70 70 65 59 53 51 51 51 49 44 33 28 26
95 95 76 42 30 23 47 50 34 30 28 29 49 41 33 33 33 33 33 32 42 51 51 51 53 55 58 60 61 61 64 67 66 63 59 55 54 53 52 51 47 40 32 27
89 93 85 41 32 42 46 31 28 28 28 30 32 33 34 33 33 34 35 35 35 43 54 57 58 58 58 57 52 61 60 60 62 60 59 59 58 56 54 52 49 44 32 21
77 78 48 36 34 35 32 31 29 28 32 32 32 32 33 33 34 35 34 36 37 37 38 45 48 50 56 52 63 67 66 62 60 61 63 63 62 59 57 54 51 47 31 25
58 50 47 34 34 34 32 34 33 32 32 32 31 31 33 34 36 35 36 37 36 40 42 44 44 40 38 43 46 48 56 60 62 63 64 64 68 62 59 56 53 47 33 28
62 42 42 35 32 33 33 34 33 33 32 33 34 33 32 32 32 32 34 34 34 36 40 40 41 48 48 48 51 54 56 59 66 63 64 73 67 62 60 57 53 41 59 35
76 47 48 40 36 35 35 35 34 35 34 34 33 32 33 35 36 39 42 44 45 44 44 46 44 44 47 50 55 58 60 63 63 61 72 70 64 62 62 59 56 68 68 41
46 37 38 40 38 36 34 35 37 37 34 33 32 35 36 38 42 42 46 47 47 48 48 50 52 43 46 55 60 59 57 58 57 61 64 66 63 62 61 61 55 89 70 80
36 37 40 38 37 36 36 37 38 35 34 34 32 32 40 45 47 48 50 49 50 50 49 47 49 54 57 59 58 57 55 53 53 54 60 63 61 60 59 59 58 95 94 95
34 36 36 36 38 36 36 37 34 34 33 32 34 38 42 46 50 51 50 49 48 47 47 47 50 49 48 56 60 62 62 59 56 56 59 59 59 59 59 59 70 97 96 96
36 37 38 39 38 36 35 31 31 33 33 36 37 37 38 39 42 44 46 48 48 48 45 45 48 51 52 53 53 53 57 59 58 59 59 58 58 60 60 59 96 96 96 94
37 36 35 36 37 32 32 33 35 37 38 38 36 37 38 35 32 32 32 33 34 34 36 38 38 38 48 48 44 49 53 61 60 59 59 59 59 60 62 91 97 96 96 77
34 33 34 34 32 34 36 36 37 37 33 38 39 36 30 29 33 36 40 42 43 43 42 44 45 45 46 46 47 51 57 65 64 62 62 62 63 62 75 97 97 96 90 63
33 33 33 34 36 36 38 40 33 23 27 32 33 36 38 40 41 46 48 48 47 44 37 37 39 42 47 54 57 58 68 74 69 67 68 69 67 70 93 97 96 96 61 65
32 32 36 37 37 37 38 30 31 27 29 29 30 34 39 44 48 49 50 49 44 44 46 52 55 55 60 64 67 71 78 76 73 72 73 76 79 95 97 96 96 80 67 58
34 35 35 35 36 36 28 30 26 26 28 30 32 34 38 43 50 53 50 42 47 50 59 67 68 71 76 79 82 84 81 78 77 76 81 94 97 97 96 96 86 64 51 51
33 34 36 38 39 38 33 26 26 26 27 30 30 34 42 50 57 52 47 47 52 60 65 68 72 76 79 88 87 87 86 82 83 90 96 97 96 96 97 81 44 38 40 45
34 36 39 40 41 37 30 26 27 31 31 33 36 44 52 57 53 47 48 56 63 66 68 68 72 78 84 89 88 88 87 87 90 94 96 96 97 96 67 40 34 34 44 71
39 38 38 41 43 39 33 32 37 37 37 40 47 51 58 58 52 52 53 58 64 67 69 70 74 76 83 85 87 87 89 96 96 96 97 97 75 34 26 25 27 40 61 78
40 42 43 44 42 35 36 34 35 33 34 40 44 48 63 62 53 55 59 66 64 69 73 76 71 65 69 69 74 83 95 96 96 96 79 46 27 24 24 25 30 39 50 59
40 40 39 36 39 45 37 36 35 35 35 41 51 57 67 64 56 58 63 66 67 70 78 78 67 62 69 77 76 92 96 96 81 48 29 24 24 23 25 27 31 38 54 73
48 46 53 60 52 38 35 39 35 33 43 57 58 62 69 59 58 60 64 66 68 70 77 79 68 80 95 96 97 97 94 62 40 24 24 25 24 27 28 31 39 49 80 100

GFSNGP_850_rhum_285.txt.gz
RH
56 48 60 54 58 58 59 51 58 44 54 46 43 43 39 33 41 53 59 62 57 55 55 57 58 56 53 48 47 50 55 58 59 62 68 73 78 82 82 69 59 83 43 38
75 67 69 69 62 62 59 54 59 54 56 43 38 34 37 33 36 49 50 50 48 49 57 58 57 55 52 48 45 49 54 56 62 62 69 73 81 84 84 83 66 83 48 42
68 69 74 88 73 62 58 56 56 69 55 42 42 46 38 35 36 36 43 44 46 47 48 49 50 50 50 45 45 48 54 59 59 63 69 73 83 86 86 84 77 75 47 45
70 80 90 50 52 49 50 52 52 49 51 44 39 39 38 36 32 34 36 36 37 37 40 45 46 46 46 48 49 49 55 59 59 64 70 77 84 85 88 87 74 76 56 48
97 86 66 59 56 56 60 53 47 44 46 43 43 38 44 36 34 32 31 30 29 30 31 33 34 37 46 54 58 60 59 58 59 65 73 78 82 86 90 88 81 70 53 51
98 98 94 56 45 40 40 63 44 46 52 54 44 64 60 34 28 27 28 29 28 24 24 31 38 41 47 56 61 61 59 56 58 67 73 78 83 87 88 86 81 68 56 54
92 91 79 57 41 35 69 61 36 36 42 52 46 42 34 33 32 31 32 33 34 35 35 34 33 41 50 54 56 56 62 64 66 70 74 77 82 86 87 86 81 69 60 58
96 92 77 49 42 48 46 36 32 36 43 49 33 35 33 32 32 33 34 34 35 36 36 37 37 37 35 35 34 48 56 60 62 66 70 76 82 86 85 83 77 65 64 75
71 69 52 44 34 29 29 28 36 35 41 34 33 34 34 35 34 35 36 37 38 38 39 38 38 38 40 39 39 39 39 42 50 62 70 74 75 77 81 79 73 78 95 100
65 60 55 42 33 27 27 26 29 30 31 31 34 35 34 34 36 37 36 34 34 35 34 35 39 44 45 50 51 51 50 48 49 56 62 63 70 78 75 78 76 86 93 94
66 60 53 43 29 29 29 27 28 30 32 34 34 34 34 33 33 32 33 35 36 40 45 47 48 48 48 48 50 51 56 60 61 60 67 64 72 76 73 76 79 81 72 75
73 57 52 46 33 30 30 31 32 33 33 32 33 33 33 33 35 37 38 42 44 45 48 48 49 49 49 49 49 50 50 51 55 64 66 71 71 68 78 77 80 86 87 74
52 37 33 33 36 33 31 33 33 33 34 34 33 34 34 36 42 45 46 45 47 48 50 51 50 48 48 50 50 50 52 56 60 65 70 74 74 69 75 80 84 85 85 75
32 35 45 41 41 36 34 35 35 34 34 34 34 35 37 40 47 49 48 45 42 40 32 24 23 27 29 32 34 38 45 52 57 59 63 72 77 79 77 79 81 84 86 86
37 33 36 39 38 38 36 36 36 36 36 37 38 39 41 40 38 37 33 28 23 22 25 26 27 29 31 32 32 34 35 36 40 52 58 59 63 68 77 82 84 88 90 97
45 38 38 38 39 37 36 36 36 36 35 35 36 36 35 35 31 26 23 22 22 22 26 30 30 26 27 30 32 33 34 39 44 45 50 58 65 71 78 82 80 78 92 99
52 49 45 44 39 37 37 37 37 36 37 36 36 35 32 26 22 24 26 25 26 32 34 31 32 34 35 37 39 40 41 44 42 48 56 58 60 67 76 82 83 84 87 99
58 54 43 39 39 38 37 37 37 35 34 34 32 28 24 22 22 23 22 22 28 33 38 38 36 38 40 42 46 50 56 59 58 57 64 70 76 75 77 79 82 85 81 94
62 62 49 39 38 37 36 35 34 34 32 23 21 19 20 21 21 20 23 29 39 42 41 38 38 40 44 49 56 60 62 65 68 69 75 79 77 75 74 74 77 80 89 98
44 41 39 37 37 37 35 35 35 28 23 20 19 22 22 21 22 23 27 35 45 43 41 40 40 44 50 60 63 64 66 70 74 79 82 81 79 78 79 81 90 97 98 97
39 38 38 38 37 37 36 35 26 21 22 23 23 22 21 24 26 28 33 35 44 42 41 44 49 54 64 65 62 65 72 77 81 83 86 86 86 91 97 98 98 97 97 97
36 35 36 37 37 39 36 26 22 23 24 21 18 19 25 29 31 34 39 45 47 44 48 53 56 60 68 67 64 68 77 82 85 87 91 97 100 98 98 98 97 96 96 81
34 35 37 38 38 37 32 29 26 23 20 19 23 28 30 33 38 39 45 51 50 50 54 54 56 64 73 68 68 71 78 82 83 89 94 96 97 97 96 96 94 77 41 31
37 38 39 40 37 33 29 27 26 24 23 24 26 29 33 38 43 49 55 57 54 55 55 55 61 70 76 69 72 73 81 84 86 92 96 96 95 92 66 33 26 24 27 34
38 40 38 37 33 33 32 32 26 25 25 26 27 31 39 48 50 55 62 60 55 53 53 54 61 72 75 71 80 76 86 89 92 94 87 67 43 27 22 21 20 22 25 29
38 38 37 33 34 39 39 30 26 27 27 29 37 44 46 46 51 58 67 62 55 56 54 55 60 71 74 73 88 87 87 97 97 88 54 32 23 22 22 22 24 26 30 37
39 38 38 44 46 42 30 28 29 31 38 42 37 42 53 54 52 53 62 68 61 58 61 62 64 68 75 80 95 98 96 97 96 59 32 24 24 25 25 27 30 33 36 41

GFSNGP_850_rhum_291.txt.gz
RH
59 50 41 48 44 39 41 39 48 40 37 30 29 29 31 29 40 54 69 67 63 50 52 46 64 66 65 69 69 69 69 66 59 57 51 45 48 58 62 71 76 80 85 97
69 49 52 55 43 40 38 37 39 39 42 30 29 27 32 35 41 51 61 55 62 56 50 41 49 46 51 61 67 71 70 61 66 66 61 56 54 57 64 73 77 82 88 94
92 65 62 86 65 49 40 38 37 47 38 30 39 39 36 33 37 36 41 48 56 52 36 54 53 47 54 56 58 61 64 72 72 72 70 68 62 61 64 76 89 83 86 95
95 89 97 55 41 42 46 43 38 39 35 32 32 33 33 30 34 35 38 38 44 46 38 58 60 60 61 64 63 68 70 72 73 70 72 75 74 70 68 70 91 86 84 89
95 95 75 56 45 45 43 41 32 40 38 38 38 45 44 36 36 36 36 39 35 37 38 46 39 43 46 54 58 59 57 59 61 66 71 74 75 74 71 72 76 82 84 90
70 94 88 47 38 36 41 59 32 33 39 41 47 58 40 35 37 37 33 38 41 35 35 37 36 34 41 46 48 48 55 61 67 69 72 72 75 77 78 79 82 84 86 90
70 77 65 54 50 44 68 53 39 38 37 49 55 44 38 37 40 38 34 31 28 26 23 23 24 29 36 42 47 54 57 62 65 68 71 75 79 78 77 79 83 85 87 88
72 85 86 36 45 61 44 33 40 40 38 44 39 45 40 35 38 30 27 28 31 31 30 32 34 33 34 39 41 43 44 46 50 56 60 65 70 74 76 81 84 87 89 92
52 54 40 38 40 37 39 40 35 32 33 38 46 46 40 36 47 46 33 35 36 36 38 38 37 36 39 44 45 46 48 50 51 53 57 61 66 69 73 77 83 91 94 94
60 50 48 42 41 34 32 35 37 37 35 40 39 45 42 39 40 38 37 38 39 39 40 39 38 37 38 44 48 50 50 50 50 51 52 54 58 64 70 75 80 87 92 96
62 52 48 49 45 42 41 40 39 37 35 41 55 44 42 38 38 38 39 40 41 38 37 39 46 48 49 48 46 44 42 42 40 39 42 47 52 59 64 67 73 81 86 94
81 50 51 49 44 44 42 42 35 37 37 44 49 38 39 38 38 38 40 38 40 42 45 49 49 46 45 44 41 36 30 26 25 25 25 29 32 35 40 48 62 76 84 88
66 56 64 51 49 45 50 53 52 43 40 45 47 36 36 37 39 38 38 42 43 46 46 48 48 40 24 19 18 16 16 17 19 22 26 28 31 33 35 38 48 62 73 84
60 62 73 64 58 54 62 69 72 61 45 42 35 36 36 38 42 41 44 47 48 49 45 31 21 18 19 19 18 20 22 24 26 28 29 30 31 34 38 44 49 52 69 82
68 56 59 56 66 64 64 75 65 50 45 40 35 34 36 41 44 46 50 50 46 30 22 20 20 20 22 22 24 25 26 26 26 29 32 37 43 47 50 52 58 66 74 86
58 62 66 64 68 77 76 67 53 49 39 36 36 39 40 42 48 51 51 39 24 21 23 24 25 26 26 28 28 28 31 33 35 38 42 50 56 60 60 61 68 76 84 94
57 72 76 71 71 78 76 63 47 40 37 37 38 42 45 49 52 47 32 27 24 24 26 27 29 30 31 31 32 33 35 38 39 41 48 56 61 64 68 74 78 84 90 97
60 49 62 58 73 63 58 58 46 40 41 41 44 44 51 50 39 29 27 28 27 25 29 32 33 32 32 34 35 38 42 44 45 51 58 65 69 72 75 76 77 82 89 94
58 56 60 63 63 62 58 52 46 51 45 49 52 52 40 30 25 25 26 28 28 31 33 34 35 35 35 36 41 47 51 52 55 59 64 71 76 78 79 78 79 81 86 95
60 54 54 64 66 61 67 66 56 56 59 60 52 36 25 25 24 24 28 29 34 34 35 36 36 38 40 42 47 51 55 56 58 63 66 72 80 84 86 90 93 94 94 94
61 67 67 67 76 74 73 76 82 84 72 54 32 24 22 25 28 28 30 31 37 38 39 40 43 44 44 47 51 55 57 60 63 66 68 74 81 86 90 92 92 91 90 92
81 83 89 81 79 82 85 90 85 64 42 27 22 22 23 26 28 32 36 38 39 41 43 45 45 46 48 50 53 59 65 67 68 71 73 77 82 87 89 92 93 93 94 96
81 77 80 88 92 95 91 76 62 44 28 24 22 21 22 25 31 33 32 37 41 45 46 46 46 47 49 51 57 65 72 74 76 77 78 82 85 88 90 92 89 78 56 40
78 93 96 93 70 64 56 47 32 28 23 20 21 22 22 29 33 35 42 46 46 44 44 46 48 51 53 58 63 67 76 81 83 83 85 87 81 69 41 27 26 25 25 28
75 72 62 54 48 39 31 30 24 24 24 24 29 37 35 37 36 39 43 46 48 45 45 48 52 56 60 63 68 75 84 85 88 90 90 69 40 26 24 23 22 24 27 31
51 48 41 32 26 27 24 23 22 24 28 37 37 35 38 39 39 40 41 41 44 52 59 61 60 61 64 69 72 76 88 90 94 94 82 48 29 26 25 25 26 28 32 36
41 36 30 27 25 24 23 23 24 32 30 27 29 36 35 37 42 42 45 49 55 58 60 65 67 68 70 72 73 81 96 97 98 95 71 41 29 28 29 30 32 35 39 41